Regional Weather Roundup
Issued by NWS Goodland, KS

Home | Current Version | Previous Version | Graphics & Text | Print | Product List | Glossary On
Versions: 1 2 3 4 5 6 7 8 9 10 11 12 13 14 15 16 17 18 19 20 21 22 23 24 25 26 27 28 29 30 31 32 33 34 35 36 37 38 39 40 41 42 43 44 45 46 47 48 49 50
000
ASUS43 KGLD 240559
RWRGLD

GOODLAND FORECAST AREA HOURLY WEATHER ROUNDUP
NATIONAL WEATHER SERVICE GOODLAND KS
1200 AM MDT THU APR 24 2014

...OFFICIAL OBSERVATIONS...

CITY           SKY/WX    TMP DP  RH WIND       PRES   REMARKS
GOODLAND KS    CLOUDY    52  30  43 N31G39    29.83R
HILL CITY KS   LGT RAIN  56  52  86 N10       29.73R
IMPERIAL NEB   CLOUDY    53  30  41 N17       29.84R
MCCOOK NEB     CLOUDY    59  32  36 NW26G33   29.77R
AKRON CO       CLOUDY    47  21  35 NW18G32   29.86F
BURLINGTON CO  CLOUDY    50  26  39 N21G37    29.85R
LIMON CO       CLOUDY    36  34  92 N22G28    29.90S
$$

...UNOFFICIAL OBSERVATIONS...

CITY           SKY/WX    TMP DP  RH WIND       PRES   REMARKS
COLBY KS       MOCLDY    54  37  54 NW31G43   29.79R
LENORA KS        N/A     53  32  45 NW12        N/A
LEOTI KS         N/A     54  32  43 NW15        N/A
NORTON KS      LGT RAIN  54  45  71 NW15      29.72R
SHARON SPRINGS   N/A     52  31  44 N30G45      N/A
WAKEENEY KS      N/A     55  49  79 MISG        N/A
TRENTON NEB      N/A     56  32  40 NW21        N/A
KIT CARSON CO    N/A     44  30  59 MISG        N/A
$$



USA.gov is the U.S. government's official web portal to all federal, state and local government web resources and services.